Toledo, OH

1:55 PM EDT on August 19, 2017 (GMT -0400)
Toledo Express

Weather History for KTOL - January, 2013

Change the Weather History Date:

Wednesday, January 9, 2013

  Actual Average Record
Temperature  
Mean Temperature 36 °F 26 °F  
Max Temperature 45 °F 33 °F 59 °F (1880)
Min Temperature 26 °F 19 °F -12 °F (1875)
Degree Days  
Heating Degree Days 29 39  
Month to date heating degree days 354 351  
Since 1 July heating degree days 2605 2676  
Cooling Degree Days 0 0  
Month to date cooling degree days 0 0  
Year to date cooling degree days 0 0  
Moisture  
Dew Point 29 °F    
Average Humidity 69    
Maximum Humidity 85    
Minimum Humidity 53    
Precipitation  
Precipitation 0.00 in 0.07 in 0.71 in (1964)
Month to date precipitation T 0.67  
Year to date precipitation T 0.67  
Snow  
Snow 0.00 in 0.30 in - ()
Month to date snowfall T 3.1  
Since 1 July snowfall 7.0 12.6  
Snow Depth 1.00 in    
Sea Level Pressure  
Sea Level Pressure 30.24 in    
Wind  
Wind Speed 13 mph (SW)    
Max Wind Speed 26 mph    
Max Gust Speed 33 mph    
Visibility 10 miles    
Events      
T = Trace of Precipitation, MM = Missing Value Source: NWS Daily Summary

Daily Weather History Graph

Daily Weather History Graph

Search for Another Location

Airport or City:

Trip Planner

Search our weather history database for the weather conditions in past years. The results will help you decide how hot, cold, wet, or windy it might be!

Date:

Astronomy

Jan. 09, 2013 Rise Set
Actual Time 8:01 AM EST 5:23 PM EST
Civil Twilight 7:30 AM EST 5:54 PM EST
Nautical Twilight 6:56 AM EST 6:29 PM EST
Astronomical Twilight 6:22 AM EST 7:02 PM EST
Moon 5:39 AM EST (1/9) 3:24 PM EST (1/9)
Length of Visible Light 10h 24m
Length of Day
9h 22m
Waning Crescent, 6% of the Moon is Illuminated
Jan 9
Waning Crescent
Jan 11
New
Jan 18
First Quarter
Jan 26
Full
Feb 3
Last Quarter

Hourly Weather History & Observations

Time (EST) Temp. Windchill Dew Point Humidity Pressure Visibility Wind Dir Wind Speed Gust Speed Precip Events Conditions
12:52 AM 30.9 °F 25.2 °F 26.1 °F 82% 30.19 in 7.0 mi South 5.8 mph - N/A   Clear
1:52 AM 30.9 °F 25.2 °F 26.1 °F 82% 30.15 in 8.0 mi South 5.8 mph - N/A   Clear
2:52 AM 30.9 °F 25.2 °F 26.1 °F 82% 30.15 in 8.0 mi South 5.8 mph - N/A   Partly Cloudy
3:52 AM 34.0 °F 27.2 °F 28.0 °F 79% 30.14 in 10.0 mi SSW 8.1 mph - N/A   Overcast
4:52 AM 37.9 °F 30.9 °F 30.0 °F 73% 30.11 in 10.0 mi SSW 10.4 mph - N/A   Overcast
5:52 AM 41.0 °F 32.8 °F 30.9 °F 67% 30.12 in 10.0 mi SW 16.1 mph 23.0 mph N/A   Overcast
6:52 AM 41.0 °F 33.1 °F 30.9 °F 67% 30.09 in 10.0 mi SSW 15.0 mph 21.9 mph N/A   Overcast
7:52 AM 41.0 °F 33.1 °F 30.9 °F 67% 30.12 in 10.0 mi SW 15.0 mph - N/A   Partly Cloudy
8:52 AM 39.9 °F 30.2 °F 32.0 °F 73% 30.15 in 10.0 mi WSW 20.7 mph 27.6 mph N/A   Clear
9:52 AM 41.0 °F 31.9 °F 32.0 °F 70% 30.18 in 10.0 mi WSW 19.6 mph 29.9 mph N/A   Clear
10:52 AM 41.0 °F 32.2 °F 32.0 °F 70% 30.21 in 10.0 mi WSW 18.4 mph - N/A   Clear
11:52 AM 42.8 °F 33.5 °F 32.0 °F 66% 30.19 in 10.0 mi WSW 23.0 mph 29.9 mph N/A   Clear
12:52 PM 43.0 °F 34.0 °F 30.9 °F 62% 30.20 in 10.0 mi WSW 21.9 mph 28.8 mph N/A   Clear
1:52 PM 44.1 °F 35.4 °F 30.0 °F 58% 30.20 in 10.0 mi WSW 21.9 mph 29.9 mph N/A   Clear
2:52 PM 45.0 °F 37.6 °F 30.9 °F 58% 30.24 in 10.0 mi West 17.3 mph 26.5 mph N/A   Clear
3:52 PM 45.0 °F 37.1 °F 28.9 °F 53% 30.25 in 10.0 mi West 19.6 mph - N/A   Clear
4:52 PM 43.0 °F 34.2 °F 28.0 °F 56% 30.29 in 10.0 mi West 20.7 mph 27.6 mph N/A   Clear
5:52 PM 41.0 °F 32.8 °F 27.0 °F 57% 30.32 in 10.0 mi WSW 16.1 mph - N/A   Clear
6:52 PM 37.0 °F 29.8 °F 28.0 °F 70% 30.35 in 10.0 mi WSW 10.4 mph - N/A   Clear
7:52 PM 34.0 °F 26.0 °F 27.0 °F 75% 30.38 in 10.0 mi WSW 10.4 mph - N/A   Clear
8:52 PM 32.0 °F 24.8 °F 27.0 °F 82% 30.41 in 10.0 mi WSW 8.1 mph - N/A   Clear
9:52 PM 33.1 °F 28.7 °F 26.1 °F 75% 30.43 in 10.0 mi SW 4.6 mph - N/A   Clear
10:52 PM 27.0 °F - 23.0 °F 85% 30.46 in 9.0 mi Calm Calm - N/A   Clear
11:52 PM 27.0 °F - 24.1 °F 89% 30.50 in 10.0 mi Calm Calm - N/A   Clear